Year,Month,Day,Hour,Minute,Value (Times are PST for temperature in C)
2015,06,22,00,00,13.70
2015,06,22,00,01,13.70
2015,06,22,00,02,13.70
2015,06,22,00,03,13.60
2015,06,22,00,04,13.60
2015,06,22,00,05,13.60
2015,06,22,00,06,13.50
2015,06,22,00,07,13.50
2015,06,22,00,08,13.50
2015,06,22,00,09,13.40
2015,06,22,00,10,13.40
2015,06,22,00,11,13.40
2015,06,22,00,12,13.40
2015,06,22,00,13,13.40
2015,06,22,00,14,13.40
2015,06,22,00,15,13.40
2015,06,22,00,16,13.40
2015,06,22,00,17,13.40
2015,06,22,00,18,13.40
2015,06,22,00,19,13.40
2015,06,22,00,20,13.40
2015,06,22,00,21,13.40
2015,06,22,00,22,13.40
2015,06,22,00,23,13.40
2015,06,22,00,24,13.30
2015,06,22,00,25,13.30
2015,06,22,00,26,13.30
2015,06,22,00,27,13.40
2015,06,22,00,28,13.40
2015,06,22,00,29,13.40
2015,06,22,00,30,13.40
2015,06,22,00,31,13.40
2015,06,22,00,32,13.50
2015,06,22,00,33,13.50
2015,06,22,00,34,13.60
2015,06,22,00,35,13.60
2015,06,22,00,36,13.60
2015,06,22,00,37,13.60
2015,06,22,00,38,13.60
2015,06,22,00,39,13.60
2015,06,22,00,40,13.60
2015,06,22,00,41,13.60
2015,06,22,00,42,13.60
2015,06,22,00,43,13.60
2015,06,22,00,44,13.60
2015,06,22,00,45,13.70
2015,06,22,00,46,13.70
2015,06,22,00,47,13.60
2015,06,22,00,48,13.60
2015,06,22,00,49,13.60
2015,06,22,00,50,13.60
2015,06,22,00,51,13.50
2015,06,22,00,52,13.40
2015,06,22,00,53,13.40
2015,06,22,00,54,13.40
2015,06,22,00,55,13.30
2015,06,22,00,56,13.30
2015,06,22,00,57,13.30
2015,06,22,00,58,13.30
2015,06,22,00,59,13.20
2015,06,22,01,00,13.20
2015,06,22,01,01,13.10
2015,06,22,01,02,13.10
2015,06,22,01,03,13.10
2015,06,22,01,04,13.10
2015,06,22,01,05,13.00
2015,06,22,01,06,13.00
2015,06,22,01,07,13.00
2015,06,22,01,08,12.90
2015,06,22,01,09,12.90
2015,06,22,01,10,12.90
2015,06,22,01,11,12.90
2015,06,22,01,12,12.90
2015,06,22,01,13,12.80
2015,06,22,01,14,12.90
2015,06,22,01,15,12.80
2015,06,22,01,16,12.80
2015,06,22,01,17,12.90
2015,06,22,01,18,12.90
2015,06,22,01,19,12.90
2015,06,22,01,20,12.80
2015,06,22,01,21,12.80
2015,06,22,01,22,12.80
2015,06,22,01,23,12.80
2015,06,22,01,24,12.80
2015,06,22,01,25,12.80
2015,06,22,01,26,12.80
2015,06,22,01,27,12.80
2015,06,22,01,28,12.80
2015,06,22,01,29,12.80
2015,06,22,01,30,12.80
2015,06,22,01,31,12.80
2015,06,22,01,32,12.90
2015,06,22,01,33,13.00
2015,06,22,01,34,13.10
2015,06,22,01,35,13.30
2015,06,22,01,36,13.40
2015,06,22,01,37,13.50
2015,06,22,01,38,13.70
2015,06,22,01,39,13.80
2015,06,22,01,40,13.90
2015,06,22,01,41,13.90
2015,06,22,01,42,14.00
2015,06,22,01,43,14.00
2015,06,22,01,44,14.10
2015,06,22,01,45,14.10
2015,06,22,01,46,14.20
2015,06,22,01,47,14.20
2015,06,22,01,48,14.10
2015,06,22,01,49,14.10
2015,06,22,01,50,14.10
2015,06,22,01,51,14.00
2015,06,22,01,52,14.00
2015,06,22,01,53,14.00
2015,06,22,01,54,13.90
2015,06,22,01,55,13.90
2015,06,22,01,56,13.80
2015,06,22,01,57,13.80
2015,06,22,01,58,13.80
2015,06,22,01,59,13.70
2015,06,22,02,00,13.70
2015,06,22,02,01,13.60
2015,06,22,02,02,13.60
2015,06,22,02,03,13.60
2015,06,22,02,04,13.50
2015,06,22,02,05,13.50
2015,06,22,02,06,13.50
2015,06,22,02,07,13.60
2015,06,22,02,08,13.60
2015,06,22,02,09,13.70
2015,06,22,02,10,13.80
2015,06,22,02,11,13.90
2015,06,22,02,12,13.90
2015,06,22,02,13,13.90
2015,06,22,02,14,13.90
2015,06,22,02,15,13.90
2015,06,22,02,16,13.80
2015,06,22,02,17,13.80
2015,06,22,02,18,13.70
2015,06,22,02,19,13.60
2015,06,22,02,20,13.60
2015,06,22,02,21,13.50
2015,06,22,02,22,13.40
2015,06,22,02,23,13.40
2015,06,22,02,24,13.40
2015,06,22,02,25,13.30
2015,06,22,02,26,13.30
2015,06,22,02,27,13.30
2015,06,22,02,28,13.20
2015,06,22,02,29,13.20
2015,06,22,02,30,13.20
2015,06,22,02,31,13.20
2015,06,22,02,32,13.20
2015,06,22,02,33,13.20
2015,06,22,02,34,13.20
2015,06,22,02,35,13.20
2015,06,22,02,36,13.20
2015,06,22,02,37,13.20
2015,06,22,02,38,13.30
2015,06,22,02,39,13.30
2015,06,22,02,40,13.30
2015,06,22,02,41,13.30
2015,06,22,02,42,13.30
2015,06,22,02,43,13.20
2015,06,22,02,44,13.20
2015,06,22,02,45,13.20
2015,06,22,02,46,13.10
2015,06,22,02,47,13.10
2015,06,22,02,48,13.10
2015,06,22,02,49,13.00
2015,06,22,02,50,13.00
2015,06,22,02,51,13.00
2015,06,22,02,52,12.90
2015,06,22,02,53,12.90
2015,06,22,02,54,12.90
2015,06,22,02,55,12.80
2015,06,22,02,56,12.80
2015,06,22,02,57,12.80
2015,06,22,02,58,12.80
2015,06,22,02,59,12.80
2015,06,22,03,00,12.70
2015,06,22,03,01,12.70
2015,06,22,03,02,12.70
2015,06,22,03,03,12.60
2015,06,22,03,04,12.60
2015,06,22,03,05,12.60
2015,06,22,03,06,12.50
2015,06,22,03,07,12.50
2015,06,22,03,08,12.50
2015,06,22,03,09,12.40
2015,06,22,03,10,12.40
2015,06,22,03,11,12.40
2015,06,22,03,12,12.40
2015,06,22,03,13,12.40
2015,06,22,03,14,12.40
2015,06,22,03,15,12.50
2015,06,22,03,16,12.50
2015,06,22,03,17,12.50
2015,06,22,03,18,12.50
2015,06,22,03,19,12.50
2015,06,22,03,20,12.50
2015,06,22,03,21,12.50
2015,06,22,03,22,12.40
2015,06,22,03,23,12.40
2015,06,22,03,24,12.40
2015,06,22,03,25,12.30
2015,06,22,03,26,12.30
2015,06,22,03,27,12.30
2015,06,22,03,28,12.30
2015,06,22,03,29,12.30
2015,06,22,03,30,12.30
2015,06,22,03,31,12.30
2015,06,22,03,32,12.30
2015,06,22,03,33,12.30
2015,06,22,03,34,12.20
2015,06,22,03,35,12.20
2015,06,22,03,36,12.20
2015,06,22,03,37,12.20
2015,06,22,03,38,12.20
2015,06,22,03,39,12.20
2015,06,22,03,40,12.20
2015,06,22,03,41,12.20
2015,06,22,03,42,12.20
2015,06,22,03,43,12.20
2015,06,22,03,44,12.20
2015,06,22,03,45,12.10
2015,06,22,03,46,12.10
2015,06,22,03,47,12.10
2015,06,22,03,48,12.10
2015,06,22,03,49,12.00
2015,06,22,03,50,12.00
2015,06,22,03,51,12.00
2015,06,22,03,52,12.00
2015,06,22,03,53,12.10
2015,06,22,03,54,12.20
2015,06,22,03,55,12.20
2015,06,22,03,56,12.20
2015,06,22,03,57,12.20
2015,06,22,03,58,12.20
2015,06,22,03,59,12.20
2015,06,22,04,00,12.20
2015,06,22,04,01,12.20
2015,06,22,04,02,12.10
2015,06,22,04,03,12.10
2015,06,22,04,04,12.00
2015,06,22,04,05,12.00
2015,06,22,04,06,11.90
2015,06,22,04,07,11.90
2015,06,22,04,08,11.80
2015,06,22,04,09,11.80
2015,06,22,04,10,11.80
2015,06,22,04,11,11.80
2015,06,22,04,12,11.70
2015,06,22,04,13,11.70
2015,06,22,04,14,11.70
2015,06,22,04,15,11.70
2015,06,22,04,16,11.70
2015,06,22,04,17,11.70
2015,06,22,04,18,11.70
2015,06,22,04,19,11.70
2015,06,22,04,20,11.70
2015,06,22,04,21,11.70
2015,06,22,04,22,11.70
2015,06,22,04,23,11.70
2015,06,22,04,24,11.70
2015,06,22,04,25,11.70
2015,06,22,04,26,11.70
2015,06,22,04,27,11.80
2015,06,22,04,28,11.80
2015,06,22,04,29,11.80
2015,06,22,04,30,11.80
2015,06,22,04,31,11.80
2015,06,22,04,32,11.70
2015,06,22,04,33,11.70
2015,06,22,04,34,11.70
2015,06,22,04,35,11.70
2015,06,22,04,36,11.70
2015,06,22,04,37,11.70
2015,06,22,04,38,11.70
2015,06,22,04,39,11.60
2015,06,22,04,40,11.60
2015,06,22,04,41,11.60
2015,06,22,04,42,11.60
2015,06,22,04,43,11.60
2015,06,22,04,44,11.50
2015,06,22,04,45,11.50
2015,06,22,04,46,11.50
2015,06,22,04,47,11.50
2015,06,22,04,48,11.40
2015,06,22,04,49,11.40
2015,06,22,04,50,11.40
2015,06,22,04,51,11.40
2015,06,22,04,52,11.30
2015,06,22,04,53,11.30
2015,06,22,04,54,11.30
2015,06,22,04,55,11.30
2015,06,22,04,56,11.30
2015,06,22,04,57,11.30
2015,06,22,04,58,11.20
2015,06,22,04,59,11.20
2015,06,22,05,00,11.20
2015,06,22,05,01,11.20
2015,06,22,05,02,11.20
2015,06,22,05,03,11.20
2015,06,22,05,04,11.20
2015,06,22,05,05,11.20
2015,06,22,05,06,11.20
2015,06,22,05,07,11.20
2015,06,22,05,08,11.20
2015,06,22,05,09,11.20
2015,06,22,05,10,11.20
2015,06,22,05,11,11.20
2015,06,22,05,12,11.20
2015,06,22,05,13,11.20
2015,06,22,05,14,11.20
2015,06,22,05,15,11.20
2015,06,22,05,16,11.20
2015,06,22,05,17,11.20
2015,06,22,05,18,11.20
2015,06,22,05,19,11.20
2015,06,22,05,20,11.20
2015,06,22,05,21,11.20
2015,06,22,05,22,11.10
2015,06,22,05,23,11.10
2015,06,22,05,24,11.10
2015,06,22,05,25,11.10
2015,06,22,05,26,11.10
2015,06,22,05,27,11.10
2015,06,22,05,28,11.10
2015,06,22,05,29,11.10
2015,06,22,05,30,11.10
2015,06,22,05,31,11.00
2015,06,22,05,32,11.00
2015,06,22,05,33,11.00
2015,06,22,05,34,11.00
2015,06,22,05,35,11.00
2015,06,22,05,36,11.00
2015,06,22,05,37,11.00
2015,06,22,05,38,11.00
2015,06,22,05,39,11.00
2015,06,22,05,40,11.00
2015,06,22,05,41,11.00
2015,06,22,05,42,11.00
2015,06,22,05,43,11.00
2015,06,22,05,44,11.00
2015,06,22,05,45,11.00
2015,06,22,05,46,11.00
2015,06,22,05,47,11.00
2015,06,22,05,48,11.00
2015,06,22,05,49,11.10
2015,06,22,05,50,11.10
2015,06,22,05,51,11.10
2015,06,22,05,52,11.10
2015,06,22,05,53,11.10
2015,06,22,05,54,11.10
2015,06,22,05,55,11.10
2015,06,22,05,56,11.10
2015,06,22,05,57,11.10
2015,06,22,05,58,11.10
2015,06,22,05,59,11.10
2015,06,22,06,00,11.20
2015,06,22,06,01,11.20
2015,06,22,06,02,11.20
2015,06,22,06,03,11.30
2015,06,22,06,04,11.30
2015,06,22,06,05,11.30
2015,06,22,06,06,11.40
2015,06,22,06,07,11.40
2015,06,22,06,08,11.50
2015,06,22,06,09,11.50
2015,06,22,06,10,11.60
2015,06,22,06,11,11.60
2015,06,22,06,12,11.70
2015,06,22,06,13,11.80
2015,06,22,06,14,11.80
2015,06,22,06,15,11.90
2015,06,22,06,16,12.00
2015,06,22,06,17,12.10
2015,06,22,06,18,12.10
2015,06,22,06,19,12.20
2015,06,22,06,20,12.20
2015,06,22,06,21,12.20
2015,06,22,06,22,12.30
2015,06,22,06,23,12.30
2015,06,22,06,24,12.30
2015,06,22,06,25,12.30
2015,06,22,06,26,12.40
2015,06,22,06,27,12.40
2015,06,22,06,28,12.40
2015,06,22,06,29,12.40
2015,06,22,06,30,12.50
2015,06,22,06,31,12.50
2015,06,22,06,32,12.60
2015,06,22,06,33,12.70
2015,06,22,06,34,12.70
2015,06,22,06,35,12.80
2015,06,22,06,36,12.80
2015,06,22,06,37,12.80
2015,06,22,06,38,12.90
2015,06,22,06,39,12.90
2015,06,22,06,40,13.00
2015,06,22,06,41,13.00
2015,06,22,06,42,13.10
2015,06,22,06,43,13.10
2015,06,22,06,44,13.20
2015,06,22,06,45,13.30
2015,06,22,06,46,13.30
2015,06,22,06,47,13.40
2015,06,22,06,48,13.50
2015,06,22,06,49,13.60
2015,06,22,06,50,13.70
2015,06,22,06,51,13.70
2015,06,22,06,52,13.80
2015,06,22,06,53,13.90
2015,06,22,06,54,13.90
2015,06,22,06,55,14.00
2015,06,22,06,56,14.10
2015,06,22,06,57,14.20
2015,06,22,06,58,14.30
2015,06,22,06,59,14.30
2015,06,22,07,00,14.40
2015,06,22,07,01,14.50
2015,06,22,07,02,14.60
2015,06,22,07,03,14.60
2015,06,22,07,04,14.70
2015,06,22,07,05,14.80
2015,06,22,07,06,14.90
2015,06,22,07,07,15.00
2015,06,22,07,08,15.00
2015,06,22,07,09,15.10
2015,06,22,07,10,15.20
2015,06,22,07,11,15.20
2015,06,22,07,12,15.30
2015,06,22,07,13,15.40
2015,06,22,07,14,15.40
2015,06,22,07,15,15.50
2015,06,22,07,16,15.60
2015,06,22,07,17,15.70
2015,06,22,07,18,15.80
2015,06,22,07,19,15.90
2015,06,22,07,20,16.00
2015,06,22,07,21,16.10
2015,06,22,07,22,16.20
2015,06,22,07,23,16.30
2015,06,22,07,24,16.30
2015,06,22,07,25,16.40
2015,06,22,07,26,16.50
2015,06,22,07,27,16.50
2015,06,22,07,28,16.60
2015,06,22,07,29,16.70
2015,06,22,07,30,16.80
2015,06,22,07,31,16.80
2015,06,22,07,32,16.90
2015,06,22,07,33,17.00
2015,06,22,07,34,17.00
2015,06,22,07,35,17.10
2015,06,22,07,36,17.20
2015,06,22,07,37,17.20
2015,06,22,07,38,17.30
2015,06,22,07,39,17.30
2015,06,22,07,40,17.40
2015,06,22,07,41,17.40
2015,06,22,07,42,17.50
2015,06,22,07,43,17.50
2015,06,22,07,44,17.60
2015,06,22,07,45,17.60
2015,06,22,07,46,17.70
2015,06,22,07,47,17.70
2015,06,22,07,48,17.80
2015,06,22,07,49,17.80
2015,06,22,07,50,17.90
2015,06,22,07,51,17.90
2015,06,22,07,52,18.00
2015,06,22,07,53,18.10
2015,06,22,07,54,18.10
2015,06,22,07,55,18.20
2015,06,22,07,56,18.20
2015,06,22,07,57,18.20
2015,06,22,07,58,18.20
2015,06,22,07,59,18.10
2015,06,22,08,00,18.10
2015,06,22,08,01,18.00
2015,06,22,08,02,18.00
2015,06,22,08,03,17.90
2015,06,22,08,04,17.90
2015,06,22,08,05,17.90
2015,06,22,08,06,17.90
2015,06,22,08,07,17.90
2015,06,22,08,08,17.80
2015,06,22,08,09,17.80
2015,06,22,08,10,17.80
2015,06,22,08,11,17.80
2015,06,22,08,12,17.70
2015,06,22,08,13,17.70
2015,06,22,08,14,17.70
2015,06,22,08,15,17.80
2015,06,22,08,16,17.80
2015,06,22,08,17,17.90
2015,06,22,08,18,17.90
2015,06,22,08,19,18.00
2015,06,22,08,20,18.10
2015,06,22,08,21,18.20
2015,06,22,08,22,18.30
2015,06,22,08,23,18.40
2015,06,22,08,24,18.50
2015,06,22,08,25,18.60
2015,06,22,08,26,18.70
2015,06,22,08,27,18.80
2015,06,22,08,28,18.90
2015,06,22,08,29,18.90
2015,06,22,08,30,19.00
2015,06,22,08,31,19.00
2015,06,22,08,32,19.00
2015,06,22,08,33,19.10
2015,06,22,08,34,19.10
2015,06,22,08,35,19.10
2015,06,22,08,36,19.10
2015,06,22,08,37,19.10
2015,06,22,08,38,19.10
2015,06,22,08,39,19.10
2015,06,22,08,40,19.10
2015,06,22,08,41,19.10
2015,06,22,08,42,19.10
2015,06,22,08,43,19.10
2015,06,22,08,44,19.10
2015,06,22,08,45,19.20
2015,06,22,08,46,19.20
2015,06,22,08,47,19.20
2015,06,22,08,48,19.20
2015,06,22,08,49,19.20
2015,06,22,08,50,19.20
2015,06,22,08,51,19.30
2015,06,22,08,52,19.30
2015,06,22,08,53,19.30
2015,06,22,08,54,19.30
2015,06,22,08,55,19.30
2015,06,22,08,56,19.30
2015,06,22,08,57,19.30
2015,06,22,08,58,19.30
2015,06,22,08,59,19.40
2015,06,22,09,00,19.30
2015,06,22,09,01,19.30
2015,06,22,09,02,19.30
2015,06,22,09,03,19.30
2015,06,22,09,04,19.30
2015,06,22,09,05,19.30
2015,06,22,09,06,19.40
2015,06,22,09,07,19.40
2015,06,22,09,08,19.50
2015,06,22,09,09,19.50
2015,06,22,09,10,19.60
2015,06,22,09,11,19.60
2015,06,22,09,12,19.60
2015,06,22,09,13,19.70
2015,06,22,09,14,19.70
2015,06,22,09,15,19.80
2015,06,22,09,16,19.80
2015,06,22,09,17,19.80
2015,06,22,09,18,19.90
2015,06,22,09,19,19.90
2015,06,22,09,20,19.90
2015,06,22,09,21,20.00
2015,06,22,09,22,20.00
2015,06,22,09,23,20.10
2015,06,22,09,24,20.10
2015,06,22,09,25,20.00
2015,06,22,09,26,20.00
2015,06,22,09,27,20.00
2015,06,22,09,28,20.00
2015,06,22,09,29,20.00
2015,06,22,09,30,20.00
2015,06,22,09,31,20.10
2015,06,22,09,32,20.10
2015,06,22,09,33,20.10
2015,06,22,09,34,20.20
2015,06,22,09,35,20.20
2015,06,22,09,36,20.20
2015,06,22,09,37,20.10
2015,06,22,09,38,20.10
2015,06,22,09,39,20.10
2015,06,22,09,40,20.10
2015,06,22,09,41,20.00
2015,06,22,09,42,19.90
2015,06,22,09,43,19.90
2015,06,22,09,44,19.90
2015,06,22,09,45,19.90
2015,06,22,09,46,20.00
2015,06,22,09,47,20.10
2015,06,22,09,48,20.10
2015,06,22,09,49,20.10
2015,06,22,09,50,20.10
2015,06,22,09,51,20.10
2015,06,22,09,52,20.00
2015,06,22,09,53,20.00
2015,06,22,09,54,19.90
2015,06,22,09,55,19.90
2015,06,22,09,56,20.00
2015,06,22,09,57,20.00
2015,06,22,09,58,20.10
2015,06,22,09,59,20.10
2015,06,22,10,00,20.20
2015,06,22,10,01,20.20
2015,06,22,10,02,20.20
2015,06,22,10,03,20.20
2015,06,22,10,04,20.20
2015,06,22,10,05,20.30
2015,06,22,10,06,20.30
2015,06,22,10,07,20.40
2015,06,22,10,08,20.40
2015,06,22,10,09,20.40
2015,06,22,10,10,20.50
2015,06,22,10,11,20.50
2015,06,22,10,12,20.60
2015,06,22,10,13,20.60
2015,06,22,10,14,20.70
2015,06,22,10,15,20.80
2015,06,22,10,16,20.80
2015,06,22,10,17,20.90
2015,06,22,10,18,20.90
2015,06,22,10,19,20.90
2015,06,22,10,20,20.90
2015,06,22,10,21,21.00
2015,06,22,10,22,21.00
2015,06,22,10,23,21.10
2015,06,22,10,24,21.10
2015,06,22,10,25,21.10
2015,06,22,10,26,21.10
2015,06,22,10,27,21.20
2015,06,22,10,28,21.10
2015,06,22,10,29,21.10
2015,06,22,10,30,21.20
2015,06,22,10,31,21.20
2015,06,22,10,32,21.20
2015,06,22,10,33,21.20
2015,06,22,10,34,21.30
2015,06,22,10,35,21.30
2015,06,22,10,36,21.30
2015,06,22,10,37,21.30
2015,06,22,10,38,21.30
2015,06,22,10,39,21.30
2015,06,22,10,40,21.40
2015,06,22,10,41,21.40
2015,06,22,10,42,21.50
2015,06,22,10,43,21.50
2015,06,22,10,44,21.50
2015,06,22,10,45,21.50
2015,06,22,10,46,21.50
2015,06,22,10,47,21.50
2015,06,22,10,48,21.50
2015,06,22,10,49,21.40
2015,06,22,10,50,21.40
2015,06,22,10,51,21.40
2015,06,22,10,52,21.40
2015,06,22,10,53,21.50
2015,06,22,10,54,21.40
2015,06,22,10,55,21.40
2015,06,22,10,56,21.40
2015,06,22,10,57,21.30
2015,06,22,10,58,21.40
2015,06,22,10,59,21.40
2015,06,22,11,00,21.50
2015,06,22,11,01,21.50
2015,06,22,11,02,21.50
2015,06,22,11,03,21.60
2015,06,22,11,04,21.60
2015,06,22,11,05,21.50
2015,06,22,11,06,21.40
2015,06,22,11,07,21.40
2015,06,22,11,08,21.30
2015,06,22,11,09,21.20
2015,06,22,11,10,21.10
2015,06,22,11,11,21.00
2015,06,22,11,12,21.00
2015,06,22,11,13,21.00
2015,06,22,11,14,20.90
2015,06,22,11,15,20.90
2015,06,22,11,16,20.90
2015,06,22,11,17,20.90
2015,06,22,11,18,20.80
2015,06,22,11,19,20.70
2015,06,22,11,20,20.60
2015,06,22,11,21,20.50
2015,06,22,11,22,20.30
2015,06,22,11,23,20.20
2015,06,22,11,24,20.20
2015,06,22,11,25,20.10
2015,06,22,11,26,20.10
2015,06,22,11,27,20.10
2015,06,22,11,28,20.00
2015,06,22,11,29,20.00
2015,06,22,11,30,19.90
2015,06,22,11,31,19.90
2015,06,22,11,32,19.90
2015,06,22,11,33,19.90
2015,06,22,11,34,19.90
2015,06,22,11,35,19.90
2015,06,22,11,36,20.00
2015,06,22,11,37,20.00
2015,06,22,11,38,20.10
2015,06,22,11,39,20.10
2015,06,22,11,40,20.20
2015,06,22,11,41,20.20
2015,06,22,11,42,20.30
2015,06,22,11,43,20.30
2015,06,22,11,44,20.30
2015,06,22,11,45,20.30
2015,06,22,11,46,20.30
2015,06,22,11,47,20.30
2015,06,22,11,48,20.30
2015,06,22,11,49,20.30
2015,06,22,11,50,20.30
2015,06,22,11,51,20.30
2015,06,22,11,52,20.40
2015,06,22,11,53,20.40
2015,06,22,11,54,20.50
2015,06,22,11,55,20.60
2015,06,22,11,56,20.60
2015,06,22,11,57,20.60
2015,06,22,11,58,20.60
2015,06,22,11,59,20.70
2015,06,22,12,00,20.70
2015,06,22,12,01,20.70
2015,06,22,12,02,20.70
2015,06,22,12,03,20.80
2015,06,22,12,04,20.90
2015,06,22,12,05,20.90
2015,06,22,12,06,21.00
2015,06,22,12,07,21.10
2015,06,22,12,08,21.10
2015,06,22,12,09,21.10
2015,06,22,12,10,21.10
2015,06,22,12,11,21.10
2015,06,22,12,12,21.20
2015,06,22,12,13,21.20
2015,06,22,12,14,21.20
2015,06,22,12,15,21.20
2015,06,22,12,16,21.20
2015,06,22,12,17,21.30
2015,06,22,12,18,21.30
2015,06,22,12,19,21.20
2015,06,22,12,20,21.20
2015,06,22,12,21,21.20
2015,06,22,12,22,21.20
2015,06,22,12,23,21.10
2015,06,22,12,24,21.10
2015,06,22,12,25,21.10
2015,06,22,12,26,21.10
2015,06,22,12,27,21.10
2015,06,22,12,28,21.10
2015,06,22,12,29,21.10
2015,06,22,12,30,21.10
2015,06,22,12,31,21.10
2015,06,22,12,32,21.10
2015,06,22,12,33,21.10
2015,06,22,12,34,21.20
2015,06,22,12,35,21.20
2015,06,22,12,36,21.20
2015,06,22,12,37,21.30
2015,06,22,12,38,21.30
2015,06,22,12,39,21.30
2015,06,22,12,40,21.40
2015,06,22,12,41,21.40
2015,06,22,12,42,21.50
2015,06,22,12,43,21.50
2015,06,22,12,44,21.50
2015,06,22,12,45,21.60
2015,06,22,12,46,21.60
2015,06,22,12,47,21.60
2015,06,22,12,48,21.60
2015,06,22,12,49,21.50
2015,06,22,12,50,21.50
2015,06,22,12,51,21.50
2015,06,22,12,52,21.40
2015,06,22,12,53,21.30
2015,06,22,12,54,21.30
2015,06,22,12,55,21.30
2015,06,22,12,56,21.30
2015,06,22,12,57,21.30
2015,06,22,12,58,21.40
2015,06,22,12,59,21.40
2015,06,22,13,00,21.30
2015,06,22,13,01,21.30
2015,06,22,13,02,21.30
2015,06,22,13,03,21.30
2015,06,22,13,04,21.30
2015,06,22,13,05,21.30
2015,06,22,13,06,21.40
2015,06,22,13,07,21.50
2015,06,22,13,08,21.60
2015,06,22,13,09,21.60
2015,06,22,13,10,21.60
2015,06,22,13,11,21.60
2015,06,22,13,12,21.60
2015,06,22,13,13,21.50
2015,06,22,13,14,21.50
2015,06,22,13,15,21.50
2015,06,22,13,16,21.50
2015,06,22,13,17,21.60
2015,06,22,13,18,21.60
2015,06,22,13,19,21.60
2015,06,22,13,20,21.60
2015,06,22,13,21,21.60
2015,06,22,13,22,21.60
2015,06,22,13,23,21.50
2015,06,22,13,24,21.50
2015,06,22,13,25,21.40
2015,06,22,13,26,21.40
2015,06,22,13,27,21.30
2015,06,22,13,28,21.30
2015,06,22,13,29,21.30
2015,06,22,13,30,21.30
2015,06,22,13,31,21.30
2015,06,22,13,32,21.30
2015,06,22,13,33,21.30
2015,06,22,13,34,21.30
2015,06,22,13,35,21.30
2015,06,22,13,36,21.30
2015,06,22,13,37,21.40
2015,06,22,13,38,21.40
2015,06,22,13,39,21.40
2015,06,22,13,40,21.50
2015,06,22,13,41,21.50
2015,06,22,13,42,21.60
2015,06,22,13,43,21.70
2015,06,22,13,44,21.70
2015,06,22,13,45,21.80
2015,06,22,13,46,21.80
2015,06,22,13,47,21.90
2015,06,22,13,48,21.90
2015,06,22,13,49,22.00
2015,06,22,13,50,22.00
2015,06,22,13,51,22.10
2015,06,22,13,52,22.20
2015,06,22,13,53,22.20
2015,06,22,13,54,22.20
2015,06,22,13,55,22.20
2015,06,22,13,56,22.20
2015,06,22,13,57,22.20
2015,06,22,13,58,22.20
2015,06,22,13,59,22.20
2015,06,22,14,00,22.20
2015,06,22,14,01,22.10
2015,06,22,14,02,22.00
2015,06,22,14,03,21.90
2015,06,22,14,04,21.90
2015,06,22,14,05,21.80
2015,06,22,14,06,21.80
2015,06,22,14,07,21.70
2015,06,22,14,08,21.70
2015,06,22,14,09,21.70
2015,06,22,14,10,21.70
2015,06,22,14,11,21.60
2015,06,22,14,12,21.60
2015,06,22,14,13,21.60
2015,06,22,14,14,21.60
2015,06,22,14,15,21.60
2015,06,22,14,16,21.70
2015,06,22,14,17,21.70
2015,06,22,14,18,21.70
2015,06,22,14,19,21.70
2015,06,22,14,20,21.80
2015,06,22,14,21,21.80
2015,06,22,14,22,21.80
2015,06,22,14,23,21.80
2015,06,22,14,24,21.80
2015,06,22,14,25,21.80
2015,06,22,14,26,21.80
2015,06,22,14,27,21.70
2015,06,22,14,28,21.80
2015,06,22,14,29,21.80
2015,06,22,14,30,21.80
2015,06,22,14,31,21.80
2015,06,22,14,32,21.80
2015,06,22,14,33,21.80
2015,06,22,14,34,21.80
2015,06,22,14,35,21.80
2015,06,22,14,36,21.80
2015,06,22,14,37,21.80
2015,06,22,14,38,21.70
2015,06,22,14,39,21.70
2015,06,22,14,40,21.70
2015,06,22,14,41,21.60
2015,06,22,14,42,21.60
2015,06,22,14,43,21.50
2015,06,22,14,44,21.50
2015,06,22,14,45,21.40
2015,06,22,14,46,21.40
2015,06,22,14,47,21.40
2015,06,22,14,48,21.40
2015,06,22,14,49,21.40
2015,06,22,14,50,21.40
2015,06,22,14,51,21.40
2015,06,22,14,52,21.40
2015,06,22,14,53,21.50
2015,06,22,14,54,21.60
2015,06,22,14,55,21.60
2015,06,22,14,56,21.60
2015,06,22,14,57,21.60
2015,06,22,14,58,21.70
2015,06,22,14,59,21.70
2015,06,22,15,00,21.80
2015,06,22,15,01,21.90
2015,06,22,15,02,22.00
2015,06,22,15,03,22.10
2015,06,22,15,04,22.20
2015,06,22,15,05,22.30
2015,06,22,15,06,22.40
2015,06,22,15,07,22.50
2015,06,22,15,08,22.60
2015,06,22,15,09,22.60
2015,06,22,15,10,22.70
2015,06,22,15,11,22.70
2015,06,22,15,12,22.70
2015,06,22,15,13,22.70
2015,06,22,15,14,23.00
2015,06,22,15,15,23.00
2015,06,22,15,16,23.10
2015,06,22,15,17,23.00
2015,06,22,15,18,23.00
2015,06,22,15,19,23.00
2015,06,22,15,20,22.90
2015,06,22,15,21,22.90
2015,06,22,15,22,22.90
2015,06,22,15,23,22.90
2015,06,22,15,24,22.90
2015,06,22,15,25,22.90
2015,06,22,15,26,22.90
2015,06,22,15,27,22.90
2015,06,22,15,28,22.90
2015,06,22,15,29,23.00
2015,06,22,15,30,23.00
2015,06,22,15,31,23.10
2015,06,22,15,32,23.10
2015,06,22,15,33,23.10
2015,06,22,15,34,23.20
2015,06,22,15,35,23.10
2015,06,22,15,36,23.10
2015,06,22,15,37,23.20
2015,06,22,15,38,23.20
2015,06,22,15,39,23.20
2015,06,22,15,40,23.30
2015,06,22,15,41,23.30
2015,06,22,15,42,23.30
2015,06,22,15,43,23.30
2015,06,22,15,44,23.30
2015,06,22,15,45,23.30
2015,06,22,15,46,23.30
2015,06,22,15,47,23.30
2015,06,22,15,48,23.30
2015,06,22,15,49,23.30
2015,06,22,15,50,23.30
2015,06,22,15,51,23.20
2015,06,22,15,52,23.20
2015,06,22,15,53,23.20
2015,06,22,15,54,23.20
2015,06,22,15,55,23.30
2015,06,22,15,56,23.30
2015,06,22,15,57,23.30
2015,06,22,15,58,23.30
2015,06,22,15,59,23.30
2015,06,22,16,00,23.30
2015,06,22,16,01,23.30
2015,06,22,16,02,23.30
2015,06,22,16,03,23.40
2015,06,22,16,04,23.50
2015,06,22,16,05,23.60
2015,06,22,16,06,23.70
2015,06,22,16,07,23.70
2015,06,22,16,08,23.70
2015,06,22,16,09,23.60
2015,06,22,16,10,23.50
2015,06,22,16,11,23.40
2015,06,22,16,12,23.40
2015,06,22,16,13,23.40
2015,06,22,16,14,23.50
2015,06,22,16,15,23.50
2015,06,22,16,16,23.60
2015,06,22,16,17,23.50
2015,06,22,16,18,23.40
2015,06,22,16,19,23.40
2015,06,22,16,20,23.40
2015,06,22,16,21,23.40
2015,06,22,16,22,23.40
2015,06,22,16,23,23.40
2015,06,22,16,24,23.50
2015,06,22,16,25,23.50
2015,06,22,16,26,23.50
2015,06,22,16,27,23.50
2015,06,22,16,28,23.50
2015,06,22,16,29,23.50
2015,06,22,16,30,23.50
2015,06,22,16,31,23.50
2015,06,22,16,32,23.60
2015,06,22,16,33,23.60
2015,06,22,16,34,23.60
2015,06,22,16,35,23.60
2015,06,22,16,36,23.60
2015,06,22,16,37,23.60
2015,06,22,16,38,23.60
2015,06,22,16,39,23.50
2015,06,22,16,40,23.50
2015,06,22,16,41,23.40
2015,06,22,16,42,23.30
2015,06,22,16,43,23.30
2015,06,22,16,44,23.20
2015,06,22,16,45,23.10
2015,06,22,16,46,23.00
2015,06,22,16,47,22.80
2015,06,22,16,48,22.70
2015,06,22,16,49,22.50
2015,06,22,16,50,22.40
2015,06,22,16,51,22.40
2015,06,22,16,52,22.30
2015,06,22,16,53,22.30
2015,06,22,16,54,22.30
2015,06,22,16,55,22.40
2015,06,22,16,56,22.40
2015,06,22,16,57,22.40
2015,06,22,16,58,22.50
2015,06,22,16,59,22.50
2015,06,22,17,00,22.50
2015,06,22,17,01,22.50
2015,06,22,17,02,22.50
2015,06,22,17,03,22.60
2015,06,22,17,04,22.60
2015,06,22,17,05,22.70
2015,06,22,17,06,22.70
2015,06,22,17,07,22.80
2015,06,22,17,08,22.90
2015,06,22,17,09,22.90
2015,06,22,17,10,22.90
2015,06,22,17,11,22.90
2015,06,22,17,12,22.90
2015,06,22,17,13,22.90
2015,06,22,17,14,22.90
2015,06,22,17,15,22.90
2015,06,22,17,16,22.90
2015,06,22,17,17,22.90
2015,06,22,17,18,23.00
2015,06,22,17,19,23.10